Location: Coupvray
(48.8929°N, 2.7967°E)
Time: 21:54:18
(UTC+00:00)

Cosmos 1241 Rocket - Pass Details

Date: 01 November 2020
Orbit: 929 x 1018 km, 65.8° (Epoch: 30 November)

Event Time Altitude Azimuth Distance (km) Brightness Sun altitude
Rises 19:08:38 0° 290° (WNW) 3,693 8.8 -26.8°
Reaches altitude 10° 19:12:07 10° 309° (NW) 2,762 7.6 -27.4°
Maximum altitude 19:16:29 18° 352° (N) 2,228 6.5 -28.1°
Enters shadow 19:19:12 15° 21° (NNE) 2,464 6.5 -28.5°
